FLOCK 3P-55

Last updated on Wed Feb 14 2018 16:20:33 GMT+0000 (Coordinated Universal Time)

1 42041U 17008CX 18045.17915973 .00001750 00000-0 75369-4 0 9994 2 42041 97.4659 110.8396 0009098 93.6412 266.5866 15.23908290 55381
UTC large
Height (km)
Speed (km/s)
/
Latitude / Longitude
Inclination (degrees)
Orbital Period (minutes)
Azimuth
Elevation
Range (km)
Doppler Factor

Next 0 passes for location: London (51.5072 / 0.1276)

Sorry there are no passes over London.
FLOCK 3P-55